Year,Month,Day,Hour,Minute,Value (Times are PST for windspeed in km/hr)
2012,03,13,00,00,7.10
2012,03,13,00,01,4.70
2012,03,13,00,02,3.50
2012,03,13,00,03,5.30
2012,03,13,00,04,6.90
2012,03,13,00,05,7.70
2012,03,13,00,06,4.70
2012,03,13,00,07,3.50
2012,03,13,00,08,7.20
2012,03,13,00,09,5.70
2012,03,13,00,10,6.20
2012,03,13,00,11,5.10
2012,03,13,00,12,7.50
2012,03,13,00,13,10.90
2012,03,13,00,14,8.80
2012,03,13,00,15,6.60
2012,03,13,00,16,4.30
2012,03,13,00,17,3.10
2012,03,13,00,18,3.40
2012,03,13,00,19,6.50
2012,03,13,00,20,3.60
2012,03,13,00,21,3.90
2012,03,13,00,22,3.40
2012,03,13,00,23,6.40
2012,03,13,00,24,5.50
2012,03,13,00,25,5.80
2012,03,13,00,26,12.60
2012,03,13,00,27,4.10
2012,03,13,00,28,2.30
2012,03,13,00,29,4.30
2012,03,13,00,30,2.10
2012,03,13,00,31,4.70
2012,03,13,00,32,7.20
2012,03,13,00,33,6.70
2012,03,13,00,34,1.10
2012,03,13,00,35,5.70
2012,03,13,00,36,6.80
2012,03,13,00,37,5.00
2012,03,13,00,38,2.40
2012,03,13,00,39,2.90
2012,03,13,00,40,6.20
2012,03,13,00,41,1.90
2012,03,13,00,42,0.80
2012,03,13,00,43,7.70
2012,03,13,00,44,2.80
2012,03,13,00,45,4.40
2012,03,13,00,46,4.40
2012,03,13,00,47,3.20
2012,03,13,00,48,6.00
2012,03,13,00,49,4.50
2012,03,13,00,50,1.50
2012,03,13,00,51,4.30
2012,03,13,00,52,5.00
2012,03,13,00,53,4.10
2012,03,13,00,54,2.70
2012,03,13,00,55,3.20
2012,03,13,00,56,5.10
2012,03,13,00,57,8.60
2012,03,13,00,58,10.50
2012,03,13,00,59,5.10
2012,03,13,01,00,8.50
2012,03,13,01,01,9.80
2012,03,13,01,02,12.10
2012,03,13,01,03,5.20
2012,03,13,01,04,8.10
2012,03,13,01,05,5.70
2012,03,13,01,06,5.20
2012,03,13,01,07,3.10
2012,03,13,01,08,3.90
2012,03,13,01,09,2.20
2012,03,13,01,10,2.50
2012,03,13,01,11,4.10
2012,03,13,01,12,2.50
2012,03,13,01,13,1.30
2012,03,13,01,14,3.00
2012,03,13,01,15,1.80
2012,03,13,01,16,2.20
2012,03,13,01,17,1.40
2012,03,13,01,18,1.00
2012,03,13,01,19,5.00
2012,03,13,01,20,9.30
2012,03,13,01,21,5.50
2012,03,13,01,22,3.30
2012,03,13,01,23,6.80
2012,03,13,01,24,3.40
2012,03,13,01,25,1.00
2012,03,13,01,26,4.20
2012,03,13,01,27,5.10
2012,03,13,01,28,5.10
2012,03,13,01,29,7.10
2012,03,13,01,30,8.60
2012,03,13,01,31,5.20
2012,03,13,01,32,3.90
2012,03,13,01,33,8.70
2012,03,13,01,34,10.30
2012,03,13,01,35,4.10
2012,03,13,01,36,7.20
2012,03,13,01,37,9.20
2012,03,13,01,38,3.60
2012,03,13,01,39,5.40
2012,03,13,01,40,7.90
2012,03,13,01,41,5.50
2012,03,13,01,42,2.70
2012,03,13,01,43,2.70
2012,03,13,01,44,7.50
2012,03,13,01,45,9.60
2012,03,13,01,46,6.60
2012,03,13,01,47,5.00
2012,03,13,01,48,2.60
2012,03,13,01,49,4.90
2012,03,13,01,50,4.70
2012,03,13,01,51,3.00
2012,03,13,01,52,6.40
2012,03,13,01,53,5.50
2012,03,13,01,54,4.80
2012,03,13,01,55,9.50
2012,03,13,01,56,2.70
2012,03,13,01,57,3.80
2012,03,13,01,58,3.00
2012,03,13,01,59,2.80
2012,03,13,02,00,7.00
2012,03,13,02,01,5.30
2012,03,13,02,02,3.30
2012,03,13,02,03,4.90
2012,03,13,02,04,2.70
2012,03,13,02,05,6.90
2012,03,13,02,06,4.40
2012,03,13,02,07,1.80
2012,03,13,02,08,2.80
2012,03,13,02,09,7.50
2012,03,13,02,10,9.70
2012,03,13,02,11,10.10
2012,03,13,02,12,5.10
2012,03,13,02,13,4.60
2012,03,13,02,14,4.80
2012,03,13,02,15,8.50
2012,03,13,02,16,2.90
2012,03,13,02,17,3.40
2012,03,13,02,18,2.10
2012,03,13,02,19,5.30
2012,03,13,02,20,8.50
2012,03,13,02,21,7.20
2012,03,13,02,22,6.00
2012,03,13,02,23,7.90
2012,03,13,02,24,7.30
2012,03,13,02,25,3.70
2012,03,13,02,26,9.30
2012,03,13,02,27,13.80
2012,03,13,02,28,12.90
2012,03,13,02,29,8.50
2012,03,13,02,30,9.40
2012,03,13,02,31,3.60
2012,03,13,02,32,4.70
2012,03,13,02,33,11.50
2012,03,13,02,34,17.10
2012,03,13,02,35,6.70
2012,03,13,02,36,3.30
2012,03,13,02,37,6.40
2012,03,13,02,38,17.00
2012,03,13,02,39,6.50
2012,03,13,02,40,11.10
2012,03,13,02,41,12.10
2012,03,13,02,42,5.10
2012,03,13,02,43,8.40
2012,03,13,02,44,10.50
2012,03,13,02,45,4.50
2012,03,13,02,46,6.70
2012,03,13,02,47,4.70
2012,03,13,02,48,4.30
2012,03,13,02,49,12.30
2012,03,13,02,50,10.50
2012,03,13,02,51,8.30
2012,03,13,02,52,8.90
2012,03,13,02,53,8.40
2012,03,13,02,54,5.60
2012,03,13,02,55,6.70
2012,03,13,02,56,2.10
2012,03,13,02,57,5.70
2012,03,13,02,58,2.50
2012,03,13,02,59,5.10
2012,03,13,03,00,6.80
2012,03,13,03,01,3.10
2012,03,13,03,02,1.80
2012,03,13,03,03,6.40
2012,03,13,03,04,8.00
2012,03,13,03,05,10.10
2012,03,13,03,06,4.40
2012,03,13,03,07,10.00
2012,03,13,03,08,6.70
2012,03,13,03,09,3.10
2012,03,13,03,10,12.00
2012,03,13,03,11,6.50
2012,03,13,03,12,11.50
2012,03,13,03,13,16.70
2012,03,13,03,14,5.30
2012,03,13,03,15,7.70
2012,03,13,03,16,6.90
2012,03,13,03,17,5.90
2012,03,13,03,18,7.60
2012,03,13,03,19,9.00
2012,03,13,03,20,4.80
2012,03,13,03,21,2.00
2012,03,13,03,22,5.00
2012,03,13,03,23,4.20
2012,03,13,03,24,8.90
2012,03,13,03,25,4.10
2012,03,13,03,26,7.60
2012,03,13,03,27,9.30
2012,03,13,03,28,2.30
2012,03,13,03,29,3.10
2012,03,13,03,30,11.20
2012,03,13,03,31,7.00
2012,03,13,03,32,4.10
2012,03,13,03,33,1.20
2012,03,13,03,34,6.20
2012,03,13,03,35,12.30
2012,03,13,03,36,9.70
2012,03,13,03,37,2.70
2012,03,13,03,38,2.10
2012,03,13,03,39,7.60
2012,03,13,03,40,6.40
2012,03,13,03,41,7.60
2012,03,13,03,42,7.20
2012,03,13,03,43,4.80
2012,03,13,03,44,2.20
2012,03,13,03,45,2.90
2012,03,13,03,46,5.10
2012,03,13,03,47,5.80
2012,03,13,03,48,3.50
2012,03,13,03,49,3.50
2012,03,13,03,50,0.40
2012,03,13,03,51,6.40
2012,03,13,03,52,3.50
2012,03,13,03,53,7.10
2012,03,13,03,54,2.80
2012,03,13,03,55,3.80
2012,03,13,03,56,1.30
2012,03,13,03,57,1.40
2012,03,13,03,58,2.30
2012,03,13,03,59,0.50
2012,03,13,04,00,1.10
2012,03,13,04,01,5.30
2012,03,13,04,02,3.00
2012,03,13,04,03,2.50
2012,03,13,04,04,1.30
2012,03,13,04,05,1.00
2012,03,13,04,06,3.10
2012,03,13,04,07,0.80
2012,03,13,04,08,1.40
2012,03,13,04,09,3.20
2012,03,13,04,10,5.50
2012,03,13,04,11,2.70
2012,03,13,04,12,0.20
2012,03,13,04,13,1.90
2012,03,13,04,14,0.40
2012,03,13,04,15,2.20
2012,03,13,04,16,1.40
2012,03,13,04,17,0.10
2012,03,13,04,18,4.00
2012,03,13,04,19,0.00
2012,03,13,04,20,0.90
2012,03,13,04,21,4.40
2012,03,13,04,22,4.80
2012,03,13,04,23,1.80
2012,03,13,04,24,0.50
2012,03,13,04,25,4.40
2012,03,13,04,26,1.30
2012,03,13,04,27,1.90
2012,03,13,04,28,1.60
2012,03,13,04,29,3.60
2012,03,13,04,30,0.00
2012,03,13,04,31,0.10
2012,03,13,04,32,1.80
2012,03,13,04,33,1.00
2012,03,13,04,34,1.90
2012,03,13,04,35,0.00
2012,03,13,04,36,0.00
2012,03,13,04,37,0.00
2012,03,13,04,38,1.80
2012,03,13,04,39,1.90
2012,03,13,04,40,3.60
2012,03,13,04,41,2.60
2012,03,13,04,42,3.40
2012,03,13,04,43,2.10
2012,03,13,04,44,3.40
2012,03,13,04,45,4.90
2012,03,13,04,46,8.80
2012,03,13,04,47,5.20
2012,03,13,04,48,2.80
2012,03,13,04,49,6.30
2012,03,13,04,50,5.10
2012,03,13,04,51,6.00
2012,03,13,04,52,2.00
2012,03,13,04,53,4.30
2012,03,13,04,54,4.60
2012,03,13,04,55,8.10
2012,03,13,04,56,5.80
2012,03,13,04,57,6.60
2012,03,13,04,58,6.50
2012,03,13,04,59,6.60
2012,03,13,05,00,6.00
2012,03,13,05,01,11.70
2012,03,13,05,02,9.70
2012,03,13,05,03,4.30
2012,03,13,05,04,5.60
2012,03,13,05,05,6.40
2012,03,13,05,06,7.20
2012,03,13,05,07,6.40
2012,03,13,05,08,3.10
2012,03,13,05,09,7.20
2012,03,13,05,10,6.40
2012,03,13,05,11,8.90
2012,03,13,05,12,7.70
2012,03,13,05,13,5.40
2012,03,13,05,14,4.80
2012,03,13,05,15,3.90
2012,03,13,05,16,3.20
2012,03,13,05,17,6.50
2012,03,13,05,18,3.10
2012,03,13,05,19,5.00
2012,03,13,05,20,6.50
2012,03,13,05,21,3.90
2012,03,13,05,22,1.40
2012,03,13,05,23,3.10
2012,03,13,05,24,2.60
2012,03,13,05,25,4.10
2012,03,13,05,26,1.70
2012,03,13,05,27,0.10
2012,03,13,05,28,0.20
2012,03,13,05,29,0.00
2012,03,13,05,30,3.00
2012,03,13,05,31,0.60
2012,03,13,05,32,0.40
2012,03,13,05,33,0.20
2012,03,13,05,34,0.20
2012,03,13,05,35,0.00
2012,03,13,05,36,1.80
2012,03,13,05,37,0.90
2012,03,13,05,38,1.70
2012,03,13,05,39,2.40
2012,03,13,05,40,3.90
2012,03,13,05,41,0.40
2012,03,13,05,42,3.80
2012,03,13,05,43,2.30
2012,03,13,05,44,1.90
2012,03,13,05,45,0.00
2012,03,13,05,46,0.10
2012,03,13,05,47,0.50
2012,03,13,05,48,0.20
2012,03,13,05,49,0.20
2012,03,13,05,50,0.00
2012,03,13,05,51,0.00
2012,03,13,05,52,0.20
2012,03,13,05,53,1.30
2012,03,13,05,54,0.00
2012,03,13,05,55,0.00
2012,03,13,05,56,0.20
2012,03,13,05,57,0.40
2012,03,13,05,58,1.80
2012,03,13,05,59,1.80
2012,03,13,06,00,0.00
2012,03,13,06,01,1.00
2012,03,13,06,02,0.60
2012,03,13,06,03,0.70
2012,03,13,06,04,0.00
2012,03,13,06,05,0.00
2012,03,13,06,06,0.00
2012,03,13,06,07,0.10
2012,03,13,06,08,0.00
2012,03,13,06,09,0.00
2012,03,13,06,10,0.00
2012,03,13,06,11,0.00
2012,03,13,06,12,0.00
2012,03,13,06,13,0.00
2012,03,13,06,14,0.00
2012,03,13,06,15,0.00
2012,03,13,06,16,0.10
2012,03,13,06,17,0.00
2012,03,13,06,18,0.00
2012,03,13,06,19,0.00
2012,03,13,06,20,0.00
2012,03,13,06,21,0.00
2012,03,13,06,22,0.00
2012,03,13,06,23,0.20
2012,03,13,06,24,0.70
2012,03,13,06,25,1.00
2012,03,13,06,26,0.00
2012,03,13,06,27,0.10
2012,03,13,06,28,0.00
2012,03,13,06,29,0.00
2012,03,13,06,30,0.00
2012,03,13,06,31,0.10
2012,03,13,06,32,0.00
2012,03,13,06,33,0.00
2012,03,13,06,34,0.00
2012,03,13,06,35,0.00
2012,03,13,06,36,0.00
2012,03,13,06,37,0.00
2012,03,13,06,38,0.00
2012,03,13,06,39,0.00
2012,03,13,06,40,0.00
2012,03,13,06,41,0.00
2012,03,13,06,42,0.00
2012,03,13,06,43,0.00
2012,03,13,06,44,0.00
2012,03,13,06,45,0.00
2012,03,13,06,46,0.00
2012,03,13,06,47,0.00
2012,03,13,06,48,0.00
2012,03,13,06,49,0.00
2012,03,13,06,50,0.00
2012,03,13,06,51,0.00
2012,03,13,06,52,0.10
2012,03,13,06,53,2.70
2012,03,13,06,54,1.40
2012,03,13,06,55,0.20
2012,03,13,06,56,0.00
2012,03,13,06,57,0.20
2012,03,13,06,58,0.00
2012,03,13,06,59,0.90
2012,03,13,07,00,1.70
2012,03,13,07,01,0.00
2012,03,13,07,02,0.00
2012,03,13,07,03,0.00
2012,03,13,07,04,0.00
2012,03,13,07,05,0.30
2012,03,13,07,06,1.00
2012,03,13,07,07,3.50
2012,03,13,07,08,2.00
2012,03,13,07,09,0.50
2012,03,13,07,10,0.30
2012,03,13,07,11,0.50
2012,03,13,07,12,1.70
2012,03,13,07,13,0.10
2012,03,13,07,14,0.30
2012,03,13,07,15,1.50
2012,03,13,07,16,0.90
2012,03,13,07,17,0.60
2012,03,13,07,18,0.00
2012,03,13,07,19,0.10
2012,03,13,07,20,1.50
2012,03,13,07,21,3.00
2012,03,13,07,22,0.00
2012,03,13,07,23,0.00
2012,03,13,07,24,0.00
2012,03,13,07,25,0.10
2012,03,13,07,26,0.20
2012,03,13,07,27,0.00
2012,03,13,07,28,0.00
2012,03,13,07,29,0.60
2012,03,13,07,30,0.00
2012,03,13,07,31,0.10
2012,03,13,07,32,0.10
2012,03,13,07,33,0.20
2012,03,13,07,34,3.40
2012,03,13,07,35,0.80
2012,03,13,07,36,3.00
2012,03,13,07,37,1.30
2012,03,13,07,38,0.60
2012,03,13,07,39,0.40
2012,03,13,07,40,0.00
2012,03,13,07,41,0.00
2012,03,13,07,42,0.00
2012,03,13,07,43,0.00
2012,03,13,07,44,0.00
2012,03,13,07,45,0.20
2012,03,13,07,46,0.10
2012,03,13,07,47,0.00
2012,03,13,07,48,0.00
2012,03,13,07,49,0.00
2012,03,13,07,50,0.00
2012,03,13,07,51,0.00
2012,03,13,07,52,1.70
2012,03,13,07,53,0.60
2012,03,13,07,54,0.20
2012,03,13,07,55,0.00
2012,03,13,07,56,3.50
2012,03,13,07,57,0.30
2012,03,13,07,58,0.10
2012,03,13,07,59,0.20
2012,03,13,08,00,2.10
2012,03,13,08,01,4.30
2012,03,13,08,02,1.10
2012,03,13,08,03,0.80
2012,03,13,08,04,2.00
2012,03,13,08,05,1.50
2012,03,13,08,06,7.10
2012,03,13,08,07,8.40
2012,03,13,08,08,8.60
2012,03,13,08,09,2.70
2012,03,13,08,10,2.30
2012,03,13,08,11,2.10
2012,03,13,08,12,1.80
2012,03,13,08,13,2.10
2012,03,13,08,14,4.30
2012,03,13,08,15,5.20
2012,03,13,08,16,4.90
2012,03,13,08,17,9.20
2012,03,13,08,18,7.20
2012,03,13,08,19,2.50
2012,03,13,08,20,3.80
2012,03,13,08,21,8.50
2012,03,13,08,22,8.00
2012,03,13,08,23,3.40
2012,03,13,08,24,6.30
2012,03,13,08,25,5.70
2012,03,13,08,26,2.70
2012,03,13,08,27,4.50
2012,03,13,08,28,1.20
2012,03,13,08,29,0.80
2012,03,13,08,30,0.30
2012,03,13,08,31,0.80
2012,03,13,08,32,2.40
2012,03,13,08,33,3.00
2012,03,13,08,34,5.80
2012,03,13,08,35,3.90
2012,03,13,08,36,3.50
2012,03,13,08,37,3.10
2012,03,13,08,38,5.90
2012,03,13,08,39,6.30
2012,03,13,08,40,2.70
2012,03,13,08,41,3.20
2012,03,13,08,42,3.10
2012,03,13,08,43,1.60
2012,03,13,08,44,0.60
2012,03,13,08,45,3.90
2012,03,13,08,46,5.40
2012,03,13,08,47,6.00
2012,03,13,08,48,2.70
2012,03,13,08,49,6.70
2012,03,13,08,50,7.60
2012,03,13,08,51,1.50
2012,03,13,08,52,2.10
2012,03,13,08,53,4.30
2012,03,13,08,54,2.30
2012,03,13,08,55,0.50
2012,03,13,08,56,2.20
2012,03,13,08,57,2.40
2012,03,13,08,58,2.30
2012,03,13,08,59,3.00
2012,03,13,09,00,4.70
2012,03,13,09,01,5.70
2012,03,13,09,02,3.50
2012,03,13,09,03,5.20
2012,03,13,09,04,4.60
2012,03,13,09,05,2.80
2012,03,13,09,06,2.70
2012,03,13,09,07,0.40
2012,03,13,09,08,5.20
2012,03,13,09,09,4.70
2012,03,13,09,10,7.90
2012,03,13,09,11,6.20
2012,03,13,09,12,5.80
2012,03,13,09,13,4.10
2012,03,13,09,14,4.30
2012,03,13,09,15,6.00
2012,03,13,09,16,2.70
2012,03,13,09,17,4.70
2012,03,13,09,18,3.50
2012,03,13,09,19,0.50
2012,03,13,09,20,1.10
2012,03,13,09,21,1.00
2012,03,13,09,22,3.10
2012,03,13,09,23,1.70
2012,03,13,09,24,1.50
2012,03,13,09,25,2.70
2012,03,13,09,26,3.00
2012,03,13,09,27,3.30
2012,03,13,09,28,1.70
2012,03,13,09,29,2.10
2012,03,13,09,30,3.80
2012,03,13,09,31,0.50
2012,03,13,09,32,1.70
2012,03,13,09,33,0.30
2012,03,13,09,34,0.00
2012,03,13,09,35,0.20
2012,03,13,09,36,2.70
2012,03,13,09,37,4.50
2012,03,13,09,38,2.70
2012,03,13,09,39,1.30
2012,03,13,09,40,1.40
2012,03,13,09,41,1.90
2012,03,13,09,42,1.00
2012,03,13,09,43,4.00
2012,03,13,09,44,2.10
2012,03,13,09,45,6.40
2012,03,13,09,46,3.10
2012,03,13,09,47,0.20
2012,03,13,09,48,2.80
2012,03,13,09,49,1.40
2012,03,13,09,50,2.10
2012,03,13,09,51,2.30
2012,03,13,09,52,4.20
2012,03,13,09,53,0.20
2012,03,13,09,54,0.40
2012,03,13,09,55,0.30
2012,03,13,09,56,3.40
2012,03,13,09,57,1.40
2012,03,13,09,58,0.50
2012,03,13,09,59,2.10
2012,03,13,10,00,1.40
2012,03,13,10,01,0.30
2012,03,13,10,02,0.00
2012,03,13,10,03,0.10
2012,03,13,10,04,0.00
2012,03,13,10,05,2.00
2012,03,13,10,06,1.40
2012,03,13,10,07,2.00
2012,03,13,10,08,3.20
2012,03,13,10,09,4.70
2012,03,13,10,10,3.70
2012,03,13,10,11,2.40
2012,03,13,10,12,3.00
2012,03,13,10,13,2.40
2012,03,13,10,14,1.80
2012,03,13,10,15,0.20
2012,03,13,10,16,0.00
2012,03,13,10,17,1.80
2012,03,13,10,18,0.60
2012,03,13,10,19,0.20
2012,03,13,10,20,6.70
2012,03,13,10,21,3.40
2012,03,13,10,22,4.90
2012,03,13,10,23,2.50
2012,03,13,10,24,2.40
2012,03,13,10,25,2.40
2012,03,13,10,26,1.10
2012,03,13,10,27,0.20
2012,03,13,10,28,1.20
2012,03,13,10,29,4.50
2012,03,13,10,30,5.00
2012,03,13,10,31,3.10
2012,03,13,10,32,3.20
2012,03,13,10,33,4.40
2012,03,13,10,34,4.50
2012,03,13,10,35,2.40
2012,03,13,10,36,2.30
2012,03,13,10,37,1.60
2012,03,13,10,38,0.10
2012,03,13,10,39,1.40
2012,03,13,10,40,0.10
2012,03,13,10,41,1.40
2012,03,13,10,42,3.10
2012,03,13,10,43,6.80
2012,03,13,10,44,4.00
2012,03,13,10,45,1.30
2012,03,13,10,46,0.20
2012,03,13,10,47,2.10
2012,03,13,10,48,0.20
2012,03,13,10,49,1.40
2012,03,13,10,50,1.60
2012,03,13,10,51,4.30
2012,03,13,10,52,1.40
2012,03,13,10,53,3.40
2012,03,13,10,54,2.80
2012,03,13,10,55,3.90
2012,03,13,10,56,6.40
2012,03,13,10,57,3.10
2012,03,13,10,58,1.50
2012,03,13,10,59,2.20
2012,03,13,11,00,6.50
2012,03,13,11,01,1.90
2012,03,13,11,02,1.30
2012,03,13,11,03,3.90
2012,03,13,11,04,3.90
2012,03,13,11,05,0.30
2012,03,13,11,06,1.80
2012,03,13,11,07,3.10
2012,03,13,11,08,6.60
2012,03,13,11,09,4.60
2012,03,13,11,10,1.20
2012,03,13,11,11,2.60
2012,03,13,11,12,3.30
2012,03,13,11,13,3.30
2012,03,13,11,14,2.10
2012,03,13,11,15,2.90
2012,03,13,11,16,1.40
2012,03,13,11,17,1.80
2012,03,13,11,18,1.60
2012,03,13,11,19,3.30
2012,03,13,11,20,1.70
2012,03,13,11,21,1.70
2012,03,13,11,22,1.60
2012,03,13,11,23,1.50
2012,03,13,11,24,2.10
2012,03,13,11,25,0.50
2012,03,13,11,26,1.40
2012,03,13,11,27,1.40
2012,03,13,11,28,3.30
2012,03,13,11,29,2.60
2012,03,13,11,30,0.20
2012,03,13,11,31,0.20
2012,03,13,11,32,1.20
2012,03,13,11,33,2.30
2012,03,13,11,34,2.30
2012,03,13,11,35,4.40
2012,03,13,11,36,3.80
2012,03,13,11,37,1.50
2012,03,13,11,38,1.70
2012,03,13,11,39,2.80
2012,03,13,11,40,1.30
2012,03,13,11,41,2.70
2012,03,13,11,42,1.40
2012,03,13,11,43,6.40
2012,03,13,11,44,1.40
2012,03,13,11,45,1.50
2012,03,13,11,46,4.60
2012,03,13,11,47,3.50
2012,03,13,11,48,0.20
2012,03,13,11,49,1.00
2012,03,13,11,50,1.40
2012,03,13,11,51,2.70
2012,03,13,11,52,4.90
2012,03,13,11,53,2.40
2012,03,13,11,54,3.90
2012,03,13,11,55,4.50
2012,03,13,11,56,2.40
2012,03,13,11,57,4.60
2012,03,13,11,58,2.70
2012,03,13,11,59,3.90
2012,03,13,12,00,3.70
2012,03,13,12,01,2.30
2012,03,13,12,02,1.90
2012,03,13,12,03,3.50
2012,03,13,12,04,1.30
2012,03,13,12,05,0.00
2012,03,13,12,06,0.60
2012,03,13,12,07,2.70
2012,03,13,12,08,3.50
2012,03,13,12,09,3.60
2012,03,13,12,10,5.80
2012,03,13,12,11,4.40
2012,03,13,12,12,2.30
2012,03,13,12,13,0.50
2012,03,13,12,14,0.30
2012,03,13,12,15,1.90
2012,03,13,12,16,6.40
2012,03,13,12,17,5.00
2012,03,13,12,18,6.30
2012,03,13,12,19,4.20
2012,03,13,12,20,3.40
2012,03,13,12,21,3.70
2012,03,13,12,22,6.30
2012,03,13,12,23,4.30
2012,03,13,12,24,3.00
2012,03,13,12,25,3.70
2012,03,13,12,26,6.00
2012,03,13,12,27,5.90
2012,03,13,12,28,6.40
2012,03,13,12,29,1.90
2012,03,13,12,30,5.00
2012,03,13,12,31,4.60
2012,03,13,12,32,4.90
2012,03,13,12,33,7.00
2012,03,13,12,34,3.60
2012,03,13,12,35,7.40
2012,03,13,12,36,6.30
2012,03,13,12,37,6.10
2012,03,13,12,38,5.20
2012,03,13,12,39,3.90
2012,03,13,12,40,2.70
2012,03,13,12,41,5.10
2012,03,13,12,42,5.50
2012,03,13,12,43,5.50
2012,03,13,12,44,6.10
2012,03,13,12,45,4.90
2012,03,13,12,46,6.80
2012,03,13,12,47,7.50
2012,03,13,12,48,8.30
2012,03,13,12,49,3.90
2012,03,13,12,50,8.30
2012,03,13,12,51,4.20
2012,03,13,12,52,4.50
2012,03,13,12,53,2.10
2012,03,13,12,54,0.80
2012,03,13,12,55,5.40
2012,03,13,12,56,5.90
2012,03,13,12,57,5.60
2012,03,13,12,58,6.30
2012,03,13,12,59,2.30
2012,03,13,13,00,3.10
2012,03,13,13,01,3.10
2012,03,13,13,02,3.40
2012,03,13,13,03,6.10
2012,03,13,13,04,6.40
2012,03,13,13,05,3.50
2012,03,13,13,06,0.80
2012,03,13,13,07,3.10
2012,03,13,13,08,3.80
2012,03,13,13,09,5.60
2012,03,13,13,10,4.20
2012,03,13,13,11,2.70
2012,03,13,13,12,5.80
2012,03,13,13,13,3.90
2012,03,13,13,14,7.70
2012,03,13,13,15,7.20
2012,03,13,13,16,7.20
2012,03,13,13,17,6.70
2012,03,13,13,18,2.90
2012,03,13,13,19,5.20
2012,03,13,13,20,9.30
2012,03,13,13,21,5.80
2012,03,13,13,22,5.90
2012,03,13,13,23,4.90
2012,03,13,13,24,1.80
2012,03,13,13,25,5.10
2012,03,13,13,26,7.30
2012,03,13,13,27,6.70
2012,03,13,13,28,6.10
2012,03,13,13,29,7.90
2012,03,13,13,30,7.10
2012,03,13,13,31,5.60
2012,03,13,13,32,7.60
2012,03,13,13,33,3.50
2012,03,13,13,34,6.80
2012,03,13,13,35,8.00
2012,03,13,13,36,4.10
2012,03,13,13,37,5.40
2012,03,13,13,38,4.60
2012,03,13,13,39,5.20
2012,03,13,13,40,7.20
2012,03,13,13,41,4.50
2012,03,13,13,42,4.50
2012,03,13,13,43,6.60
2012,03,13,13,44,2.70
2012,03,13,13,45,2.30
2012,03,13,13,46,3.90
2012,03,13,13,47,1.20
2012,03,13,13,48,3.90
2012,03,13,13,49,7.80
2012,03,13,13,50,5.70
2012,03,13,13,51,2.10
2012,03,13,13,52,3.70
2012,03,13,13,53,3.50
2012,03,13,13,54,4.20
2012,03,13,13,55,8.10
2012,03,13,13,56,4.20
2012,03,13,13,57,2.60
2012,03,13,13,58,3.20
2012,03,13,13,59,7.00
2012,03,13,14,00,3.70
2012,03,13,14,01,4.90
2012,03,13,14,02,6.10
2012,03,13,14,03,9.50
2012,03,13,14,04,8.10
2012,03,13,14,05,5.70
2012,03,13,14,06,6.80
2012,03,13,14,07,6.10
2012,03,13,14,08,7.90
2012,03,13,14,09,6.90
2012,03,13,14,10,7.80
2012,03,13,14,11,7.40
2012,03,13,14,12,6.00
2012,03,13,14,13,9.90
2012,03,13,14,14,6.30
2012,03,13,14,15,5.70
2012,03,13,14,16,6.10
2012,03,13,14,17,7.60
2012,03,13,14,18,10.00
2012,03,13,14,19,9.20
2012,03,13,14,20,6.10
2012,03,13,14,21,9.60
2012,03,13,14,22,10.50
2012,03,13,14,23,9.90
2012,03,13,14,24,6.60
2012,03,13,14,25,7.20
2012,03,13,14,26,11.90
2012,03,13,14,27,9.70
2012,03,13,14,28,8.90
2012,03,13,14,29,13.00
2012,03,13,14,30,11.30
2012,03,13,14,31,6.30
2012,03,13,14,32,4.10
2012,03,13,14,33,5.80
2012,03,13,14,34,6.10
2012,03,13,14,35,9.60
2012,03,13,14,36,12.50
2012,03,13,14,37,5.30
2012,03,13,14,38,8.10
2012,03,13,14,39,6.00
2012,03,13,14,40,10.70
2012,03,13,14,41,8.50
2012,03,13,14,42,6.40
2012,03,13,14,43,12.20
2012,03,13,14,44,11.80
2012,03,13,14,45,10.50
2012,03,13,14,46,13.80
2012,03,13,14,47,11.30
2012,03,13,14,48,11.40
2012,03,13,14,49,7.60
2012,03,13,14,50,9.40
2012,03,13,14,51,9.20
2012,03,13,14,52,14.70
2012,03,13,14,53,6.50
2012,03,13,14,54,8.90
2012,03,13,14,55,1.90
2012,03,13,14,56,12.20
2012,03,13,14,57,15.40
2012,03,13,14,58,7.90
2012,03,13,14,59,11.10
2012,03,13,15,00,17.50
2012,03,13,15,01,14.60
2012,03,13,15,02,4.70
2012,03,13,15,03,6.10
2012,03,13,15,04,7.70
2012,03,13,15,05,15.70
2012,03,13,15,06,14.10
2012,03,13,15,07,19.70
2012,03,13,15,08,14.30
2012,03,13,15,09,18.10
2012,03,13,15,10,15.70
2012,03,13,15,11,12.10
2012,03,13,15,12,10.40
2012,03,13,15,13,13.50
2012,03,13,15,14,20.90
2012,03,13,15,15,16.10
2012,03,13,15,16,13.60
2012,03,13,15,17,17.00
2012,03,13,15,18,8.40
2012,03,13,15,19,4.90
2012,03,13,15,20,4.50
2012,03,13,15,21,9.20
2012,03,13,15,22,12.70
2012,03,13,15,23,16.50
2012,03,13,15,24,17.70
2012,03,13,15,25,8.50
2012,03,13,15,26,10.60
2012,03,13,15,27,11.60
2012,03,13,15,28,8.80
2012,03,13,15,29,10.50
2012,03,13,15,30,11.30
2012,03,13,15,31,10.50
2012,03,13,15,32,15.40
2012,03,13,15,33,10.50
2012,03,13,15,34,9.00
2012,03,13,15,35,12.10
2012,03,13,15,36,5.00
2012,03,13,15,37,5.00
2012,03,13,15,38,3.20
2012,03,13,15,39,9.70
2012,03,13,15,40,15.10
2012,03,13,15,41,7.60
2012,03,13,15,42,8.40
2012,03,13,15,43,7.80
2012,03,13,15,44,11.10
2012,03,13,15,45,11.10
2012,03,13,15,46,10.70
2012,03,13,15,47,8.60
2012,03,13,15,48,5.70
2012,03,13,15,49,8.60
2012,03,13,15,50,15.50
2012,03,13,15,51,8.40
2012,03,13,15,52,8.10
2012,03,13,15,53,7.20
2012,03,13,15,54,2.20
2012,03,13,15,55,7.80
2012,03,13,15,56,4.40
2012,03,13,15,57,6.80
2012,03,13,15,58,15.60
2012,03,13,15,59,11.40
2012,03,13,16,00,5.00
2012,03,13,16,01,7.90
2012,03,13,16,02,17.10
2012,03,13,16,03,11.70
2012,03,13,16,04,11.30
2012,03,13,16,05,5.00
2012,03,13,16,06,6.10
2012,03,13,16,07,12.20
2012,03,13,16,08,5.30
2012,03,13,16,09,11.70
2012,03,13,16,10,6.50
2012,03,13,16,11,10.60
2012,03,13,16,12,7.40
2012,03,13,16,13,8.70
2012,03,13,16,14,8.20
2012,03,13,16,15,5.50
2012,03,13,16,16,5.60
2012,03,13,16,17,9.30
2012,03,13,16,18,6.90
2012,03,13,16,19,11.20
2012,03,13,16,20,15.90
2012,03,13,16,21,11.80
2012,03,13,16,22,10.40
2012,03,13,16,23,10.90
2012,03,13,16,24,13.70
2012,03,13,16,25,13.50
2012,03,13,16,26,15.80
2012,03,13,16,27,20.40
2012,03,13,16,28,17.40
2012,03,13,16,29,14.80
2012,03,13,16,30,15.70
2012,03,13,16,31,17.20
2012,03,13,16,32,15.70
2012,03,13,16,33,14.60
2012,03,13,16,34,16.40
2012,03,13,16,35,21.10
2012,03,13,16,36,20.90
2012,03,13,16,37,18.60
2012,03,13,16,38,18.60
2012,03,13,16,39,15.40
2012,03,13,16,40,14.50
2012,03,13,16,41,12.80
2012,03,13,16,42,18.80
2012,03,13,16,43,12.80
2012,03,13,16,44,16.50
2012,03,13,16,45,13.40
2012,03,13,16,46,17.00
2012,03,13,16,47,15.60
2012,03,13,16,48,13.90
2012,03,13,16,49,12.60
2012,03,13,16,50,10.30
2012,03,13,16,51,9.70
2012,03,13,16,52,14.60
2012,03,13,16,53,11.50
2012,03,13,16,54,15.20
2012,03,13,16,55,10.50
2012,03,13,16,56,14.60
2012,03,13,16,57,8.60
2012,03,13,16,58,8.70
2012,03,13,16,59,12.70
2012,03,13,17,00,11.90
2012,03,13,17,01,10.20
2012,03,13,17,02,15.60
2012,03,13,17,03,9.20
2012,03,13,17,04,12.80
2012,03,13,17,05,12.50
2012,03,13,17,06,11.50
2012,03,13,17,07,9.70
2012,03,13,17,08,8.60
2012,03,13,17,09,12.20
2012,03,13,17,10,11.10
2012,03,13,17,11,13.40
2012,03,13,17,12,10.50
2012,03,13,17,13,13.60
2012,03,13,17,14,7.40
2012,03,13,17,15,9.70
2012,03,13,17,16,13.00
2012,03,13,17,17,8.40
2012,03,13,17,18,5.60
2012,03,13,17,19,7.10
2012,03,13,17,20,11.20
2012,03,13,17,21,9.10
2012,03,13,17,22,6.00
2012,03,13,17,23,8.80
2012,03,13,17,24,10.40
2012,03,13,17,25,13.00
2012,03,13,17,26,11.10
2012,03,13,17,27,15.70
2012,03,13,17,28,13.20
2012,03,13,17,29,6.90
2012,03,13,17,30,8.30
2012,03,13,17,31,12.70
2012,03,13,17,32,9.20
2012,03,13,17,33,4.80
2012,03,13,17,34,14.40
2012,03,13,17,35,6.20
2012,03,13,17,36,11.30
2012,03,13,17,37,9.20
2012,03,13,17,38,7.10
2012,03,13,17,39,8.00
2012,03,13,17,40,9.70
2012,03,13,17,41,10.50
2012,03,13,17,42,11.20
2012,03,13,17,43,15.30
2012,03,13,17,44,12.10
2012,03,13,17,45,12.40
2012,03,13,17,46,6.30
2012,03,13,17,47,6.60
2012,03,13,17,48,10.10
2012,03,13,17,49,11.00
2012,03,13,17,50,7.20
2012,03,13,17,51,4.90
2012,03,13,17,52,5.90
2012,03,13,17,53,8.90
2012,03,13,17,54,4.40
2012,03,13,17,55,10.90
2012,03,13,17,56,10.10
2012,03,13,17,57,5.10
2012,03,13,17,58,10.10
2012,03,13,17,59,5.60